Location: Gellin
(53.4498°N, 14.3207°E)
Time: 23:35:14
(UTC+00:00)

CZ-2C R/B - Pass Details

Date: 03 March 2021
Orbit: 703 x 909 km, 98.1° (Epoch: 12 April)

Event Time Altitude Azimuth Distance (km) Brightness Sun altitude
Rises 17:22:08 0° 174° (S) 3,502 6.4 -6.4°
Reaches altitude 10° 17:24:36 10° 178° (S) 2,550 5.7 -6.7°
Maximum altitude 17:30:14 61° 259° (W) 975 3.9 -7.6°
Drops below altitude 10° 17:35:40 10° 340° (NNW) 2,453 5.9 -8.4°
Sets 17:38:01 0° 344° (NNW) 3,359 6.6 -8.7°
